Torna al catalogo

CZ-6A DEB

AttivoPO
NORAD 61435·DEBRIS·🇨🇳 China

Lanciato Aug 6, 2024 da Taiyuan Satellite Launch Center

Loading…

Prossimi Passaggi (prossime 24 ore)

TLE

AggiornatoSource: Space-Track

Epoca: Sep 14, 2026, 10:37 UTC

1 61435U 24140ZC  26257.44294923  .00001652  00000-0  31435-3 0  9992
2 61435  88.8770 247.4218 0103607 281.0557  77.9018 14.60256716109811

Traccia CZ-6A DEB in tempo reale con AllMySat

Download on the App Store